Location: ???????
(55.4362°N, 38.1183°E)
Time: 19:57:54
(UTC+00:00)

RESURS 01 DEB - Visible Passes

Search period start: 21 January 2022 00:00
Search period end: 31 January 2022 00:00
Orbit: 609 x 623 km, 97.9° (Epoch: 21 January)

Date Brightness Start Highest point End Pass type
(mag) Time Alt. Az. Time Alt. Az. Time Alt. Az.
21 Jan ? 16:04:10 11° NNE 16:04:10 11° NNE 16:04:23 10° N visible
21 Jan ? 17:41:16 10° NNW 17:41:16 10° NNW 17:41:17 10° NNW visible
22 Jan ? 16:20:22 12° N 16:20:22 12° N 16:20:48 10° N visible
23 Jan ? 16:36:32 13° N 16:36:32 13° N 16:37:08 10° N visible
24 Jan ? 16:52:41 14° N 16:52:41 14° N 16:53:22 10° N visible
25 Jan ? 17:08:49 15° N 17:08:49 15° N 17:09:34 10° N visible
26 Jan ? 15:47:51 12° NNE 15:47:51 12° NNE 15:48:25 10° NNE visible
26 Jan ? 17:24:55 15° N 17:24:55 15° N 17:25:40 10° NNW visible
27 Jan ? 16:03:57 14° NNE 16:03:57 14° NNE 16:04:52 10° N visible
27 Jan ? 17:41:01 15° NNW 17:41:01 15° NNW 17:41:45 10° NNW visible
28 Jan ? 16:20:01 16° NNE 16:20:01 16° NNE 16:21:10 10° N visible
28 Jan ? 17:57:05 14° NNW 17:57:05 14° NNW 17:57:44 10° NNW visible
29 Jan ? 16:36:04 18° NNE 16:36:04 18° NNE 16:37:23 10° N visible
29 Jan ? 18:13:09 13° NNW 18:13:09 13° NNW 18:13:41 10° NNW visible
30 Jan ? 16:52:07 19° N 16:52:07 19° N 16:53:32 10° N visible
30 Jan ? 18:29:11 12° NNW 18:29:11 12° NNW 18:29:31 10° NNW visible
